Weather History for Alexandria, LA

Change the Weather History Date:

Thursday, November 10, 2011

  Actual Average Record
Temperature  
Mean Temperature 49 °F 59 °F  
Max Temperature 63 °F 72 °F 86 °F (1935)
Min Temperature 35 °F 47 °F 28 °F (1956)
Degree Days  
Heating Degree Days 16 7  
Month to date heating degree days 68 56  
Since 1 July heating degree days 172 129  
Moisture  
Dew Point 31 °F    
Average Humidity 52    
Maximum Humidity 82    
Minimum Humidity 21    
Precipitation  
Precipitation 0.00 in 0.14 in 2.95 in (1905)
Month to date precipitation 0.56 1.29  
Year to date precipitation 26.99 45.60  
Snow  
Snow 0.00 in - 0.00 in ()
Month to date snowfall 0.0  
Since 1 July snowfall 0.0  
Since 1 September snowfall 0.0  
Snow Depth 0.00 in    
Sea Level Pressure  
Sea Level Pressure 30.32 in    
Wind  
Wind Speed 7 mph (NNW)    
Max Wind Speed 21 mph    
Max Gust Speed 28 mph    
Visibility 10 miles    
Events      
T = Trace of Precipitation, MM = Missing Value Source: NWS Daily Summary

Daily Weather History Graph

Daily Weather History Graph

Search for Another Location

Airport:

Trip Planner

Search our weather history database for the weather conditions in past years. The results will help you decide how hot, cold, wet, or windy it might be!

Date:

Astronomy

Nov. 10, 2011 Rise Set
Actual Time 6:33 AM CST 5:14 PM CST
Civil Twilight 6:07 AM CST 5:40 PM CST
Nautical Twilight 5:38 AM CST 6:09 PM CST
Astronomical Twilight 5:10 AM CST 6:37 PM CST
Moon 5:06 PM CST (11/10) 6:23 AM CST (11/10)
Length of Visible Light 11h 32m
Length of Day
10h 41m
Full, 100% of the Moon is Illuminated
Nov 10
Full
Nov 10
Full
Nov 18
Last Quarter
Nov 25
New
Dec 2
First Quarter

Hourly Weather History & Observations

Time (CST) Temp. Windchill Dew Point Humidity Pressure Visibility Wind Dir Wind Speed Gust Speed Precip Events Conditions
12:53 AM 50.0 °F - 39.0 °F 66% 30.29 in 10.0 mi NNW 4.6 mph - N/A   Clear
1:53 AM 50.0 °F - 37.9 °F 63% 30.29 in 10.0 mi NNW 5.8 mph - N/A   Clear
3:53 AM 46.9 °F - 37.0 °F 68% 30.30 in 10.0 mi NNW 6.9 mph - N/A   Clear
4:53 AM 46.0 °F 43.1 °F 37.0 °F 71% 30.31 in 10.0 mi NNW 5.8 mph - N/A   Clear
5:53 AM 44.6 °F 40.2 °F 35.6 °F 71% 30.31 in 10.0 mi NNW 8.1 mph - N/A   Clear
6:53 AM 43.0 °F 39.5 °F 35.1 °F 74% 30.35 in 10.0 mi NNW 5.8 mph - N/A   Clear
7:53 AM 48.0 °F - 34.0 °F 58% 30.37 in 10.0 mi North 6.9 mph - N/A   Clear
8:53 AM 53.1 °F - 33.1 °F 47% 30.38 in 10.0 mi North 10.4 mph - N/A   Clear
9:53 AM 55.9 °F - 28.0 °F 34% 30.39 in 10.0 mi North 13.8 mph 19.6 mph N/A   Clear
10:53 AM 57.9 °F - 25.0 °F 28% 30.38 in 10.0 mi North 16.1 mph 23.0 mph N/A   Clear
11:53 AM 60.1 °F - 26.1 °F 27% 30.35 in 10.0 mi NNW 16.1 mph 24.2 mph N/A   Clear
12:53 PM 63.0 °F - 26.1 °F 25% 30.31 in 10.0 mi NNW 16.1 mph 27.6 mph N/A   Clear
1:53 PM 62.6 °F - 23.0 °F 22% 30.28 in 10.0 mi North 16.1 mph 19.6 mph N/A   Clear
2:53 PM 62.1 °F - 24.1 °F 23% 30.27 in 10.0 mi NNW 13.8 mph 18.4 mph N/A   Clear
4:53 PM 59.0 °F - 25.0 °F 27% 30.27 in 10.0 mi North 8.1 mph - N/A   Clear
5:53 PM 52.0 °F - 27.0 °F 38% 30.28 in 10.0 mi NNW 4.6 mph - N/A   Clear
6:53 PM 46.9 °F - 30.9 °F 54% 30.30 in 10.0 mi Calm Calm - N/A   Clear
7:53 PM 43.0 °F - 32.0 °F 65% 30.30 in 10.0 mi Calm Calm - N/A   Clear
8:53 PM 42.1 °F - 32.0 °F 67% 30.30 in 10.0 mi Calm Calm - N/A   Clear
9:53 PM 39.0 °F - 32.0 °F 76% 30.30 in 10.0 mi Calm Calm - N/A   Clear
10:53 PM 37.9 °F - 32.0 °F 79% 30.31 in 10.0 mi Calm Calm - N/A   Clear
11:53 PM 37.0 °F - 32.0 °F 82% 30.30 in 10.0 mi Calm Calm - N/A   Clear